Home   Weather   Staunton   Past weeks
Flag for USA

Past Weather in Staunton, Virginia, USA — Yesterday and Last 2 Weeks

Now
85 °F

Sunny.


Feels Like: 85 °F
Forecast: 87 / 62 °F
Wind: No wind

Location: Eagles Nest Airport

Current Time: Sep 22, 2019 at 2:31:51 pm

Latest Report: Sep 22, 2019 at 1:55 pm


Visibility: 10 mi

Pressure: 30.15 "Hg

Humidity: 44%

Dew Point: 61 °F

Location of StauntonLocation

Past Weather in Staunton — Graph

°F

Staunton Temperature Yesterday

Maximum temperature yesterday: 87 °F (at 3:35 pm)
Minimum temperature yesterday: 55 °F (at 6:35 am)
Average temperature yesterday: 70 °F

High & Low Weather Summary for the Past Weeks

 TemperatureHumidityPressure
High93 °F (Sep 11, 4:15 pm)100% (Sep 8, 4:15 am)30.38 "Hg (Sep 8, 4:15 am)
Low45 °F (Sep 20, 7:35 am)30% (Sep 16, 2:15 pm)29.93 "Hg (Sep 7, 4:35 pm)
Average69 °F80%30.21 "Hg
* Reported Sep 7 1:15 pm — Sep 22 1:15 pm, Staunton. Weather by CustomWeather, © 2019

Note: Actual official high and low records may vary slightly from our data, if they occured in-between our weather recording intervals... More about our weather records

Advertising

Staunton Weather History for the Previous 24 Hours

Scroll right to see more
 ConditionsComfort  
Time TempWeatherWind HumidityBarometerVisibility
1:15 pm
Sun, Sep 22
84 °FSunny.No wind47%30.18 "Hg10 mi
12:55 pm84 °FSunny.3 mph49%30.19 "Hg10 mi
12:35 pm83 °FSunny.3 mph50%30.20 "Hg10 mi
12:15 pm84 °FSunny.3 mph51%30.21 "Hg10 mi
11:55 am82 °FSunny.No wind54%30.21 "Hg10 mi
11:35 am81 °FSunny.6 mph57%30.22 "Hg10 mi
11:15 am79 °FSunny.3 mph60%30.22 "Hg10 mi
10:35 am76 °FSunny.5 mph67%30.23 "Hg10 mi
10:15 am74 °FSunny.No wind74%30.24 "Hg10 mi
9:55 am71 °FSunny.3 mph79%30.24 "Hg10 mi
9:35 am69 °FSunny.No wind85%30.24 "Hg10 mi
9:15 am67 °FSunny.No wind90%30.24 "Hg10 mi
8:55 am65 °FSunny.No wind96%30.24 "Hg10 mi
8:35 am64 °FSunny.No wind100%30.24 "Hg10 mi
8:15 am62 °FSunny.No wind99%30.24 "Hg7 mi
7:55 am60 °FSunny.No wind100%30.23 "Hg7 mi
7:35 am59 °FSunny.No wind99%30.24 "Hg5 mi
7:15 am58 °FSunny.No wind99%30.23 "Hg5 mi
6:55 am59 °FClear.No wind99%30.23 "Hg4 mi
6:35 am59 °FClear.3 mph100%30.23 "Hg5 mi
6:15 am60 °FClear.No wind100%30.22 "Hg7 mi
5:55 am60 °FClear.No wind100%30.22 "Hg5 mi
5:35 am61 °FClear.No wind100%30.21 "Hg7 mi
5:15 am62 °FClear.No wind99%30.21 "Hg7 mi
4:55 am62 °FClear.No wind99%30.21 "Hg10 mi
4:35 am63 °FClear.No wind99%30.21 "Hg10 mi
4:15 am62 °FClear.5 mph99%30.22 "Hg7 mi
3:55 am62 °FClear.No wind99%30.22 "Hg7 mi
3:35 am62 °FClear.No wind99%30.22 "Hg7 mi
3:15 am63 °FClear.3 mph99%30.23 "Hg7 mi
2:55 am63 °FClear.No wind99%30.23 "Hg10 mi
2:35 am64 °FClear.No wind100%30.23 "Hg10 mi
2:15 am63 °FClear.No wind100%30.24 "Hg10 mi
1:55 am64 °FClear.No wind99%30.24 "Hg10 mi
1:35 am64 °FClear.No wind99%30.24 "Hg10 mi
1:15 am64 °FClear.No wind99%30.24 "Hg10 mi
12:55 am64 °FClear.No wind99%30.24 "Hg10 mi
12:35 am65 °FClear.No wind100%30.24 "Hg10 mi
12:15 am65 °FClear.No wind99%30.24 "Hg10 mi
11:55 pm
Sat, Sep 21
66 °FClear.3 mph99%30.24 "Hg10 mi
11:35 pm66 °FClear.No wind98%30.24 "Hg10 mi
11:15 pm68 °FClear.No wind92%30.24 "Hg10 mi
10:55 pm67 °FClear.No wind92%30.24 "Hg10 mi
10:35 pm68 °FClear.3 mph92%30.24 "Hg10 mi
10:15 pm69 °FClear.No wind88%30.24 "Hg10 mi
9:55 pm69 °FClear.5 mph87%30.23 "Hg10 mi
9:35 pm70 °FPassing clouds.3 mph83%30.22 "Hg10 mi
9:15 pm70 °FClear.6 mph82%30.22 "Hg10 mi
8:55 pm71 °FPassing clouds.6 mph81%30.22 "Hg10 mi
8:35 pm72 °FOvercast.6 mph80%30.21 "Hg10 mi
7:55 pm74 °FOvercast.9 mph70%30.21 "Hg10 mi
7:35 pm77 °FMostly cloudy.8 mph66%30.21 "Hg10 mi
7:15 pm79 °FPassing clouds.8 mph60%30.21 "Hg10 mi
6:55 pm79 °FScattered clouds.3 mph59%30.20 "Hg10 mi
6:35 pm80 °FSunny.No wind56%30.20 "Hg10 mi
6:15 pm82 °FSunny.5 mph55%30.20 "Hg10 mi
5:55 pm83 °FSunny.5 mph52%30.20 "Hg10 mi
5:35 pm85 °FSunny.No wind43%30.20 "Hg10 mi
5:15 pm85 °FSunny.No wind42%30.20 "Hg10 mi
4:55 pm86 °FSunny.3 mph41%30.20 "Hg10 mi
4:15 pm86 °FSunny.No wind42%30.20 "Hg10 mi
3:55 pm86 °FScattered clouds.No wind41%30.21 "Hg10 mi
3:35 pm87 °FSunny.No wind41%30.22 "Hg10 mi
3:15 pm86 °FSunny.3 mph41%30.22 "Hg10 mi
2:55 pm85 °FSunny.No wind44%30.23 "Hg10 mi
2:35 pm86 °FSunny.5 mph43%30.24 "Hg10 mi
2:15 pm85 °FSunny.3 mph45%30.24 "Hg10 mi
Weather by CustomWeather, © 2019

See weather overview